Milledgeville, GA

11:36 AM EST on December 14, 2019 (GMT -0500)
Baldwin County

Weather History for KMLJ - October, 2019

Change the Weather History Date:

Saturday, October 26, 2019

  Actual Average (WUND) Record (WUND)
Temperature  
Mean Temperature 73 °F -  
Max Temperature 78 °F - - (-1)
Min Temperature 68 °F - - (-1)
Cooling Degree Days 8    
Growing Degree Days 23 (Base 50)    
Moisture  
Dew Point 67 °F    
Average Humidity 84    
Maximum Humidity 100    
Minimum Humidity 69    
Precipitation  
Precipitation 0.00 in - - ()
Sea Level Pressure  
Sea Level Pressure 29.97 in    
Wind  
Wind Speed 5 mph ()    
Max Wind Speed 9 mph    
Max Gust Speed -    
Visibility 10.0 miles    
Events Rain    
Averages and records for this station are not official NWS values.
T = Trace of Precipitation, MM = Missing Value Source: Averaged Metar Reports

Daily Weather History Graph

Daily Weather History Graph

Search for Another Location

Airport or City:

Astronomy

Oct. 26, 2019 Rise Set
Actual Time 7:45 AM EDT 6:47 PM EDT
Civil Twilight 7:20 AM EDT 7:12 PM EDT
Nautical Twilight 6:51 AM EDT 7:41 PM EDT
Astronomical Twilight 6:22 AM EDT 8:10 PM EDT
Moon 5:50 AM EDT (10/26) 6:14 PM EDT (10/26)
Length of Visible Light 11h 52m
Length of Day
11h 01m
Waning Crescent, 3% of the Moon is Illuminated
Oct 26
Waning Crescent
Oct 27
New
Nov 4
First Quarter
Nov 12
Full
Nov 19
Last Quarter

Hourly Weather History & Observations

Time (EDT) Temp. Dew Point Humidity Pressure Visibility Wind Dir Wind Speed Gust Speed Precip Events Conditions
12:15 AM 71.6 °F 64.4 °F 78% 30.11 in 10.0 mi SE 4.6 mph - N/A   Overcast
12:35 AM 71.6 °F 64.4 °F 78% 30.10 in 10.0 mi SE 4.6 mph - N/A   Overcast
12:55 AM 71.6 °F 64.4 °F 78% 30.10 in 10.0 mi SE 3.5 mph - N/A   Overcast
1:15 AM 69.8 °F 64.4 °F 83% 30.09 in 10.0 mi Calm Calm - N/A   Mostly Cloudy
1:35 AM 69.8 °F 64.4 °F 83% 30.09 in 10.0 mi SE 4.6 mph - N/A   Mostly Cloudy
1:55 AM 69.8 °F 64.4 °F 83% 30.09 in 10.0 mi SE 4.6 mph - N/A   Overcast
2:15 AM 69.8 °F 64.4 °F 83% 30.09 in 10.0 mi SSE 4.6 mph - N/A   Overcast
2:35 AM 69.8 °F 64.4 °F 83% 30.08 in 10.0 mi SE 4.6 mph - N/A   Overcast
2:55 AM 69.8 °F 64.4 °F 83% 30.07 in 10.0 mi SE 5.8 mph - N/A   Overcast
3:15 AM 69.8 °F 64.4 °F 83% 30.06 in 10.0 mi SE 5.8 mph - N/A   Overcast
3:35 AM 69.8 °F 64.4 °F 83% 30.06 in 10.0 mi SE 4.6 mph - N/A   Mostly Cloudy
3:55 AM 68.0 °F 64.4 °F 88% 30.06 in 10.0 mi SE 4.6 mph - N/A   Mostly Cloudy
4:15 AM 68.0 °F 64.4 °F 88% 30.05 in 10.0 mi ESE 3.5 mph - N/A   Scattered Clouds
4:35 AM 68.0 °F 64.4 °F 88% 30.05 in 10.0 mi SE 4.6 mph - N/A   Mostly Cloudy
4:55 AM 68.0 °F 64.4 °F 88% 30.04 in 10.0 mi ESE 5.8 mph - N/A   Mostly Cloudy
5:15 AM 68.0 °F 64.4 °F 88% 30.04 in 10.0 mi ESE 5.8 mph - N/A   Mostly Cloudy
5:35 AM 68.0 °F 64.4 °F 88% 30.04 in 10.0 mi ESE 5.8 mph - N/A   Overcast
5:55 AM 68.0 °F 64.4 °F 88% 30.04 in 10.0 mi ESE 5.8 mph - N/A   Mostly Cloudy
6:15 AM 68.0 °F 64.4 °F 88% 30.04 in 10.0 mi ESE 6.9 mph - N/A   Overcast
6:35 AM 68.0 °F 64.4 °F 88% 30.03 in 10.0 mi ESE 5.8 mph - N/A   Overcast
6:55 AM 68.0 °F 64.4 °F 88% 30.03 in 10.0 mi SE 3.5 mph - N/A   Overcast
7:15 AM 68.0 °F 64.4 °F 88% 30.03 in 10.0 mi SE 4.6 mph - N/A   Overcast
7:35 AM 68.0 °F 64.4 °F 88% 30.04 in 10.0 mi SE 4.6 mph - N/A   Overcast
7:55 AM 68.0 °F 64.4 °F 88% 30.04 in 10.0 mi SE 4.6 mph - N/A   Overcast
8:15 AM 68.0 °F 64.4 °F 88% 30.03 in 10.0 mi SE 5.8 mph - N/A   Overcast
8:35 AM 68.0 °F 64.4 °F 88% 30.03 in 10.0 mi SE 8.1 mph - N/A   Overcast
8:55 AM 68.0 °F 64.4 °F 88% 30.03 in 10.0 mi SE 4.6 mph - N/A   Mostly Cloudy
9:15 AM 68.0 °F 64.4 °F 88% 30.03 in 10.0 mi SE 6.9 mph - N/A   Overcast
9:35 AM 69.8 °F 64.4 °F 83% 30.04 in 10.0 mi SE 8.1 mph - N/A   Overcast
9:55 AM 69.8 °F 64.4 °F 83% 30.04 in 10.0 mi ESE 5.8 mph - N/A   Overcast
10:15 AM 69.8 °F 64.4 °F 83% 30.04 in 10.0 mi SE 8.1 mph - N/A   Overcast
11:15 AM 73.4 °F 66.2 °F 78% 30.02 in 10.0 mi SSE 6.9 mph - N/A   Scattered Clouds
11:35 AM 73.4 °F 66.2 °F 78% 30.00 in 10.0 mi SSE 9.2 mph - N/A   Mostly Cloudy
11:55 AM 77.0 °F 68.0 °F 74% 30.00 in 10.0 mi SSE 5.8 mph - N/A   Overcast
12:15 PM 77.0 °F 68.0 °F 74% 30.00 in 10.0 mi SSE 8.1 mph - N/A   Overcast
12:35 PM 75.2 °F 68.0 °F 78% 30.00 in 10.0 mi South 5.8 mph - N/A   Overcast
12:55 PM 75.2 °F 68.0 °F 78% 29.99 in 10.0 mi SSE 6.9 mph - N/A   Overcast
1:15 PM 77.0 °F 68.0 °F 74% 29.97 in 10.0 mi SE 5.8 mph - N/A   Overcast
1:35 PM 75.2 °F 68.0 °F 78% 29.96 in 10.0 mi SE 5.8 mph - N/A   Overcast
1:55 PM 77.0 °F 68.0 °F 74% 29.94 in 10.0 mi SE 5.8 mph - N/A   Overcast
2:15 PM 77.0 °F 68.0 °F 74% 29.93 in 10.0 mi SE 5.8 mph - N/A   Overcast
2:35 PM 77.0 °F 68.0 °F 74% 29.92 in 10.0 mi ESE 5.8 mph - N/A   Mostly Cloudy
2:55 PM 78.8 °F 68.0 °F 69% 29.90 in 10.0 mi ESE 6.9 mph - N/A   Scattered Clouds
3:35 PM 78.8 °F 69.8 °F 74% 29.89 in 10.0 mi SE 4.6 mph - N/A   Scattered Clouds
3:55 PM 78.8 °F 69.8 °F 74% 29.88 in 10.0 mi ESE 5.8 mph - N/A   Mostly Cloudy
4:35 PM 78.8 °F 69.8 °F 74% 29.87 in 10.0 mi ESE 4.6 mph - N/A   Mostly Cloudy
4:55 PM 78.8 °F 69.8 °F 74% 29.88 in 10.0 mi ESE 3.5 mph - N/A   Mostly Cloudy
5:15 PM 78.8 °F 69.8 °F 74% 29.87 in 10.0 mi ESE 4.6 mph - N/A   Mostly Cloudy
5:35 PM 78.8 °F 69.8 °F 74% 29.87 in 10.0 mi East 8.1 mph - N/A   Mostly Cloudy
5:55 PM 78.8 °F 69.8 °F 74% 29.86 in 10.0 mi SE 6.9 mph - N/A   Overcast
6:15 PM 78.8 °F 69.8 °F 74% 29.86 in 10.0 mi SE 5.8 mph - N/A   Scattered Clouds
6:35 PM 77.0 °F 69.8 °F 78% 29.86 in 10.0 mi SE 6.9 mph - N/A   Clear
6:55 PM 77.0 °F 69.8 °F 78% 29.86 in 10.0 mi SSE 5.8 mph - N/A   Clear
7:15 PM 77.0 °F 69.8 °F 78% 29.86 in 10.0 mi SE 6.9 mph - N/A   Clear
7:35 PM 77.0 °F 71.6 °F 83% 29.86 in 10.0 mi SE 6.9 mph - N/A   Mostly Cloudy
7:55 PM 75.2 °F 71.6 °F 89% 29.86 in 10.0 mi SE 4.6 mph - N/A   Mostly Cloudy
8:15 PM 75.2 °F 71.6 °F 89% 29.86 in 10.0 mi SSE 4.6 mph - N/A   Overcast
8:35 PM 73.4 °F 71.6 °F 94% 29.87 in 10.0 mi SSE 4.6 mph - N/A Rain Light Rain
8:55 PM 73.4 °F 71.6 °F 94% 29.86 in 10.0 mi SE 5.8 mph - N/A   Overcast
9:15 PM 73.4 °F 71.6 °F 94% 29.86 in 10.0 mi South 4.6 mph - N/A Rain Light Rain
9:35 PM 73.4 °F 71.6 °F 94% 29.86 in 10.0 mi SSE 8.1 mph - N/A   Overcast
9:55 PM 73.4 °F 71.6 °F 94% 29.86 in 10.0 mi South 5.8 mph - N/A   Overcast
10:15 PM 73.4 °F 71.6 °F 94% 29.87 in 10.0 mi South 5.8 mph - N/A   Overcast
10:35 PM 73.4 °F 71.6 °F 94% 29.87 in 10.0 mi South 4.6 mph - N/A   Overcast
10:55 PM 73.4 °F 71.6 °F 94% 29.87 in 10.0 mi South 5.8 mph - N/A   Overcast
11:15 PM 73.4 °F 73.4 °F 100% 29.86 in 10.0 mi SSE 6.9 mph - N/A   Overcast
11:35 PM 73.4 °F 73.4 °F 100% 29.87 in 10.0 mi South 4.6 mph - N/A   Overcast
11:55 PM 73.4 °F 73.4 °F 100% 29.86 in 10.0 mi South 3.5 mph - N/A   Overcast